Location: Pardubice
(50.0333°N, 15.7833°E)
Time: 17:54:43
(UTC+02:00)

ISS - Visible Passes

Search period start: 24 September 2017 00:00
Search period end: 04 October 2017 00:00
Orbit: 401 x 407 km, 51.6° (Epoch: 25 September)

Date Brightness Start Highest point End Pass type
(mag) Time Alt. Az. Time Alt. Az. Time Alt. Az.
26 Sep -2.3 20:27:55 10° SSW 20:29:50 24° S 20:29:50 24° S visible
27 Sep -2.1 19:36:15 10° S 19:38:35 18° SE 19:39:59 14° ESE visible
27 Sep -1.6 21:11:23 10° WSW 21:12:38 21° WSW 21:12:38 21° WSW visible
28 Sep -3.6 20:19:08 10° SW 20:22:19 50° SSE 20:22:37 47° SE visible
29 Sep -2.9 19:27:03 10° SSW 19:30:01 32° SSE 19:32:28 13° E visible
29 Sep -2.4 21:03:03 10° W 21:05:07 36° W 21:05:07 36° W visible
30 Sep -3.9 20:10:37 10° WSW 20:13:53 81° SSE 20:14:52 43° E visible
30 Sep -0.5 21:47:13 10° W 21:47:31 12° W 21:47:31 12° W visible
01 Oct -3.6 19:18:17 10° SW 19:21:30 57° SSE 19:24:31 11° ENE visible
01 Oct -2.7 20:54:43 10° W 20:57:10 44° WNW 20:57:10 44° WNW visible
02 Oct -3.8 20:02:14 10° W 20:05:30 74° N 20:06:46 34° ENE visible
02 Oct -0.6 21:38:51 10° WNW 21:39:24 14° WNW 21:39:24 14° WNW visible
03 Oct -3.8 19:09:45 10° WSW 19:13:02 88° SSE 19:16:18 10° ENE visible
03 Oct -2.9 20:46:22 10° W 20:48:57 48° NW 20:48:57 48° NW visible
